Location: Aalen
(48.8330°N, 10.1000°E)
Time: 17:27:14
(UTC+02:00)

Transit 4A - Pass Details

Date: 08 August 2021
Orbit: 871 x 974 km, 66.8° (Epoch: 16 September)

Event Time Altitude Azimuth Distance (km) Brightness Sun altitude
Rises 08:47:48 0° 321° (NW) 3,480 10.5 25.5°
Reaches altitude 10° 08:50:20 10° 316° (NW) 2,546 9.9 25.9°
Maximum altitude 08:55:57 48° 244° (WSW) 1,161 8.4 26.9°
Drops below altitude 10° 09:01:39 10° 172° (S) 2,587 10.5 27.8°
Sets 09:04:15 0° 167° (SSE) 3,541 11.2 28.2°
